Regional Weather Roundup
Issued by NWS

Home | Current Version | Previous Version | Text Only | Print | Product List | Glossary On
Versions: 1 2 3 4 5 6 7 8 9 10 11 12 13 14 15 16 17 18 19 20 21 22 23 24 25 26 27 28 29 30 31 32 33 34 35 36 37 38 39 40 41 42 43 44 45 46 47 48 49 50
000
ASUS43 KDTX 050810
RWRMI
MICHIGAN HOURLY REGIONAL WEATHER ROUNDUP
NATIONAL WEATHER SERVICE DETROIT/PONTIAC MI
ISSUED BY NATIONAL WEATHER SERVICE GRAND RAPIDS MI
400 AM EDT SAT SEP 05 2015

NOTE: "FAIR" INDICATES FEW OR NO CLOUDS BELOW 12,000 FEET WITH NO
SIGNIFICANT WEATHER AND/OR OBSTRUCTION TO VISIBILITY.

MIZ047>049-052>055-059>063-066>070-074>076-081>083-050900-
SOUTHEAST LOWER MICHIGAN

CITY           SKY/WX    TMP DP  RH WIND       PRES   REMARKS
ADRIAN         CLEAR     68  66  93 W5        30.09S
ALMA           FOG       65  65 100 CALM      30.08R VSB 1/4
ANN ARBOR      PTCLDY    67  66  97 CALM      30.08S FOG
BAD AXE        CLOUDY    67  67  99 E3        30.09R FOG
DETROIT CITY   MOCLDY    69  67  93 W3        30.08R
DETROIT        CLEAR     69  67  93 CALM      30.08S FOG
FLINT          FOG       71  68  90 SW3       30.08R VSB 1/4
GROSSE ILE     CLEAR     70  66  88 CALM      30.08R
HILLSDALE      PTCLDY    70  69  97 SW5       30.10F
HOWELL         PTCLDY    67  66  99 CALM      30.08S FOG

CITY           SKY/WX    TMP DP  RH WIND       PRES   REMARKS
JACKSON        PTCLDY    70  68  93 SW7       30.09S
LANSING        PTCLDY    63  62  97 CALM      30.08S FOG
MASON          CLOUDY    65  63  92 CALM      30.08S FOG
MONROE         MOCLDY    68  66  94 CALM      30.07S
MT. CLEMENS    CLOUDY    67  67  98 SW1       30.07R
PONTIAC        CLOUDY    70  69  97 SW3         N/A  FOG
PORT HOPE        N/A     68  62  81 SE5       30.07S
PORT HURON     CLOUDY    68  68 100 CALM      30.08S FOG
TRI CITIES     FOG       68  66  93 CALM      30.08R VSB 1/4
YPSILANTI      CLEAR     70  66  87 SW3       30.09R FOG
$$
MIZ043>046-050>051-056>058-064>065-071>073-077>080-050900-
SOUTHWEST LOWER MICHIGAN

CITY           SKY/WX    TMP DP  RH WIND       PRES   REMARKS
BATTLE CREEK   PTCLDY    68  67  96 CALM      30.09R
BENTON HARBOR  PTCLDY    66  65  96 CALM      30.06R FOG
BIG RAPIDS     FOG       67  66  98 CALM      30.07F VSB 1/4
COLDWATER      PTCLDY    67  65  93 CALM      30.09S
HOLLAND        PTCLDY    66  64  93 CALM      30.07S FOG
GRAND RAPIDS   FOG       65  64  97 CALM      30.07F VSB 1/4
KALAMAZOO      PTCLDY    69  66  90 SW3       30.08S
MARSHALL       PTCLDY    69  67  93 CALM      30.09S
MOUNT PLEASANT FOG       69  68  94 CALM      30.07R VSB 1/4
MUSKEGON       CLOUDY    65  62  90 CALM      30.07S
STURGIS        PTCLDY    66  64  94 CALM      30.08S
$$
MIZ016>042-050900-
NORTHERN LOWER MICHIGAN

CITY           SKY/WX    TMP DP  RH WIND       PRES   REMARKS
ALPENA         CLOUDY    68  63  84 E3        30.08S
BEAVER ISLAND  CLOUDY    66  65  97 E3        30.06F FOG
BELLAIRE       CLOUDY    66  64  96 CALM      30.06S FOG
CADILLAC       FOG       66  65  99 S3        30.08S VSB 1/2
CHARLEVOIX     FOG       67  66  99 CALM      30.10R VSB 1
GAYLORD        CLOUDY    68  68 100 CALM      30.09S FOG
HOUGHTON LAKE  CLOUDY    68  67  96 S5        30.09S FOG
MANISTEE       CLOUDY    66  63  88 CALM      30.07S VSB<1/4
OSCODA         CLOUDY    71  69  93 SE3       30.07S
PELLSTON       PTCLDY    63  62  97 SW3       30.07S
TRAVERSE CITY  CLOUDY    68  66  93 CALM      30.05S FOG
LUDINGTON      FOG       71  69  94 CALM      30.07S VSB 1/4
$$
MIZ007>008-015-050900-
EASTERN UPPER MICHIGAN

CITY           SKY/WX    TMP DP  RH WIND       PRES   REMARKS
KINROSS        CLEAR     68  63  83 E8        30.08F
MACKINAC ISLAN PTCLDY    65  64  94 E7        30.07F
NEWBERRY       PTCLDY    64  62  92 SE3       30.08S
S. S. MARIE    CLEAR     68  61  78 E7        30.08F
$$
MIZ004>006-011>014-085-050900-
CENTRAL UPPER MICHIGAN

CITY           SKY/WX    TMP DP  RH WIND       PRES   REMARKS
MANISTIQUE     CLEAR     64  62  96 CALM      30.06S FOG
ESCANABA       CLOUDY    66  64  94 CALM      30.04F
MENOMINEE      MOCLDY    64  61  88 CALM      30.05S VSB 3/4
$$
MIZ001>003-009>011-084-050900-
WESTERN UPPER MICHIGAN

CITY           SKY/WX    TMP DP  RH WIND       PRES   REMARKS
IRON MOUNTAIN  FOG       62  60  93 CALM      30.06F VSB 3/4
HOUGHTON       CLEAR     63  61  93 SE6       30.04F
COPPER HARBOR    N/A     66  63  90 SW6       30.04F
IRONWOOD       CLEAR     70  66  88 S10G20    29.99F
$$

ABBREVIATIONS USED IN REMARKS
   TC - TEMPERATURE IN CELSIUS
  WCI - WIND CHILL INDEX
   HX - HEAT INDEX
  VSB - VISIBILITY



USA.gov is the U.S. government's official web portal to all federal, state and local government web resources and services.